Weather in Rakhmangulovo

Russia / Sverdlovsk Oblast     56°35′24″N   58°03′07″E
temp.,
°C
wind,
m/s
gust,
m/s
humid.,
%
clouds,
%
prec.,
mm/h
press.,
hPa
HPBL,
m
20 may, fri
fri2023:00+5wsw3494100 2.9 1004688
02:00+3w51097100 4.5 1005535
05:00+3nw369296 4.8 1006340
08:00+5w468116 0.1 1008742
11:00+8w575415 0.2 10091598
14:00+10wsw565097 0.4 10081825
17:00+10wsw665294 0.7 10081653
20:00+8w226266 0.0 100861
21 may, sat
sat2123:00+6ne2266100 0.0 100613
02:00+5ene2474100 0.0 100480
05:00+5ene2676100 0.0 1002154
08:00+6ne3476100 0.1 1002290
11:00+6nne2475100 0.7 1001754
14:00+7nne6873100 0.6 9991164
17:00+6nne5876100 1.6 9991027
20:00+6nne3884100 0.6 998846
22 may, sun
sun2223:00+5nnw61089100 1.0 997795
02:00+3nw61097100 0.4 995643
05:00+2nw61097100 0.5 995557
08:00+2wnw61092100 0.1 995632
11:00+4w71075100 0.1 9951208
14:00+5w81165100 0.1 9961543
17:00+7w7115777 0.3 9971818
20:00+5wsw697399 0.2 998946
23 may, mon
mon2323:00+2ssw4109217 0.2 998334
02:00+1ssw49948 0.0 998272
05:000s369779 0.0 998160
08:00+4ssw4680100 0.0 997548
11:00+8ssw4658100 0.1 9961659
14:00+9ssw456099 0.1 9961507
17:00+9wsw4561100 0.6 9971151
20:00+7sw477097 0.1 998410
24 may, tue
tue2423:00+3sw368981 0.1 1001119
02:00+3ssw369168 0.0 1002199
05:00+3s339425 0.0 100465
08:00+6ssw58787 0.1 1005708
11:00+9ssw6858100 0.3 10051760
14:00+10ssw5855100 0.1 10061480
17:00+11ssw5758100 0.1 10071055
20:00+10s2266100 0.0 100741